Погода в Ларьяке

Погода в Ларьяке : погода сейчас, прогноз погоды и архив. Всё, что Вы хотите узнать о погоде в Ларьяке!

Хотите узнать прогноз погоды в Ларьяке? Тогда Вам сюда: Погода в Ларьяке

Поиск расширенной информации на нашем сайте:

Другие новости

Новости СМИ2

Главная страница сайта

Новости сайта

03.07.2017

Напоминаем, что на нашем специализированном сайте Метеоцентр.Азия вы можете получить высокодетализированные автоматические прогнозы погоды по пунктам России, СНГ и мира в авиационном формате (включающие направление и скорость ветра, видимость, явления погоды, количество и форму облачности, нижнюю и верхнюю границу облачности).


Погода в Ларьяке - сегодня

Время (UTC), дата Ветер
(°,м/с) 
Видим.   Явления Облачность Т
(°С)
Тd
(°С)
f(%) Тe
(°С)
Pmin
(гПа)
dP
(гПа)
Po
(мм)
O2
(г/м3)
Тmin Tmax R s Состояние
почвы
03 24.07.17 080 (В) 20000 м    6/0 средняя, верхняя 
[Ac trans|Ci fib]
+20.2 +14.2 68 +27  1010  -0.7  753  279  +14.6      влажная 
06 24.07.17 100 (В) 20000 м    8/8 600 м кучево-дожд. 
[Cb cap]
+24.5 +13 49 +30  1008.8  -1  752  275           
09 24.07.17 080 (В) 20000 м  гроза без осадков  8/8 600 м кучево-дожд., верхняя 
[Cb cap|Ci fib]
+26.5 +12 40 +30  1007.3  -1.5  751  273           
12 24.07.17 080 (В) 20000 м  {гроза}  8/5 600 м кучево-дожд., верхняя 
[Cb cap|Ci fib]
+26.5 +10.4 36 +28  1006.6  -0.7  750  274           
15 24.07.17 тихо ()   20000 м    8/4 600 м кучево-дожд., средняя, верхняя 
[Cb cap|Ac As|Ci fib]
+20.1 +14.4 70 +28  1006.6  0.1  750  279    +27       
18 24.07.17 080 (В) 20000 м    8/0 средняя, верхняя 
[As trans|Ci fib]
+16.6 +13.2 80 +24  1005.9  -0.8  749  282           
21 24.07.17 тихо ()   20000 м    10/0 средняя, верхняя 
[As trans|Ci fib]
+15.4 +13.5 88 +22  1005.2  -0.7  749  283           
00 25.07.17 тихо ()   20000 м    10/1 600 м средняя 
[Cu hum|As trans]
+15.8 +13.8 88 +23  1005  -0.2  749  282           
03 25.07.17 тихо ()   20000 м  гроза без осадков{ливн. осадки}  10/4 600 м кучево-дожд., средняя 
[Cb calv|As trans]
+16.7 +15.4 92 +26  1004.9  0.1  749  281  +15.2    0.7     
06 25.07.17 360 (С) 20000 м  в посл. час ливневой дождь{гроза}  10/10 600 м кучево-дожд. 
[Cb cap]
+18.7 +17 90 +32  1004.2  -0.6  748  278           
09 25.07.17 320 (СЗ) 10 км  слаб. ливневой дождь  10/10 600 м кучево-дожд. 
[Cb cap]
+18.5 +17.3 93 +33  1004.1  -0.1  748  278           
12 25.07.17 010 (С) 20000 м  {ливн. осадки}  8/3 600 м средняя, верхняя 
[Cu med, cong|Ac As|Ci fib]
+20.7 +17.3 81 +34  1003.1  -1  747  276           
15 25.07.17 270 (З) 10 км  слаб. ливневой дождь  8/8 600 м кучево-дожд. 
[Cb cap]
+17.9 +16.6 92 +31  1002.5  -0.6  747  279    +22.4     
18 25.07.17 тихо ()   20000 м  в посл. час ливневой дождь  9/9 600 м кучево-дожд. 
[Cb cap]
+16.4 +15.5 94 +26  1002.4  -0.2  747  281           
21 25.07.17 тихо ()   4000 м  дымка  10/0 средняя 
[As op]
+16.5 +15.7 95 +27  1002.3  0.1  747  280           
00 26.07.17 180 (Ю) 0200 м  туман  10/0 средняя 
[As op]
+16.5 +15.7 95 +28  1002.2  0.1  747  280           
03 26.07.17 280 (З) 10 км  дымка{туман}  8/5 600 м кучево-дожд., верхняя 
[Cb cap|Ci fib]
+18.9 +16.2 84 +31  1002.3  0.2  747  278  +16.1    0.7    влажная 
06 26.07.17 260 (З) 20000 м  {туман}  8/8 600 м кучево-дожд. 
[Cb cap]
+23.8 +16.6 64 +36  1001.9  -0.3  747  273           
09 26.07.17 330 (СЗ) 20000 м    8/6 600 м кучево-дожд., средняя 
[Cb cap|As op]
+24.2 +14.5 55 +32  1001.8  -0.1  747  273           
12 26.07.17 300 (СЗ) 20000 м    3/1 600 м кучево-дожд., средняя, верхняя 
[Cb cap|Ac trans|Ci fib]
+23.7 +13.4 52 +30  1002.3  0.5  747  274           
15 26.07.17 тихо ()   20000 м    5/3 600 м кучево-дожд., средняя, верхняя 
[Cb cap|Ac trans|Ci fib]
+20.1 +16.1 78 +31  1002.6  0.2  747  277    +24.6       
18 26.07.17 280 (З) 20000 м    3/0 средняя 
[Ac trans]
+16.4 +14.6 89 +25  1003.2  0.5  747  281           
21 26.07.17 250 (З) 20000 м    10/3 600 м средняя, верхняя 
[Sc|Ac trans|Ci fib]
+15.1 +14.2 94 +23  1003.2  747  282           
00 27.07.17 230 (ЮЗ) 20000 м    9/9 600 м 
[Sc]
+16.6 +15.4 93 +27  1003.9  0.7  748  281           
03 27.07.17 300 (СЗ) 20000 м    10/10 600 м кучево-дожд. 
[Cb cap]
+18.9 +15.5 81 +30  1004  0.2  748  279  +14.8         
Время (UTC), дата Ветер
(°,м/с) 
Видим.   Явления Облачность Т
(°С)
Тd
(°С)
f(%) Тe
(°С)
Pmin
(гПа)
dP
(гПа)
Po
(мм)
O2
(г/м3)
Тmin Tmax R s Состояние
почвы

Для получения пояснительной информации подведите курсор к названию столбца.

ПОГОДА в Ларьяке - архив

Всё, что Вы хотите узнать о погоде в Ларьяке - удобно и подробно!

Выберите нужную дату (начиная с 1 января 2015* года) и нажмите кнопку "Найти".
Будут отображены архивные сводки погоды по пункту Ларьяк, начиная с указанной даты.


Отображать данные в формате CSV (для использования в таблицах Excel)


Внимание! Наш архив погоды предназначен исключительно для личного некоммерческого использования в познавательных целях. Если Вам необходимы официальные справки о состоянии погоды (для производственных, юридических, коммерческих и т.п. целей), обращайтесь в органы Росгидромета.

*Примечание: данная дата относится к архиву по метеостанциям СССР (Россия, СНГ, Балтия).
Архив по метеостанциям Зарубежной Европы и Азии (кроме Китая) хранится 10 дней, по другим регионам земного шара (Китай, Африка, Америка, Австралия, Океания) - 1 день.

Ларьяк - район местоположения метеостанции


Название, широта, долгота, высота метеостанции:
Ларьяк 61.1°ш. 80.3°д. 55 м над ур. моря [Российская Федерация]

Дополнительная информация

В oтличие oт бoльшинства пoгoдных сайтoв мы публикуем пoдрoбную метеoинфoрмацию в детальнoм прoфессиoнальнoм фoрмате.

Характеристики температуры и влажнoсти вoздуха измеряются на высoте 2 м в тени вдали oт зданий и деревьев.
Скoрoсть ветра измеряется на высoте 10 м (на урoвне рoста челoвека скoрoсть ветра ниже в 1.5-2 раза). Если метеoстанция нахoдится в гoрoде или в лесу, тo скoрoсть ветра занижена на 2-4 м/с пo сравнению с oткрытым местoм. Скoрoсть ветра над акватoриями крупных рек и oзёр, а также на вершинах хoлмoв на 2-5 м/с выше, чем в oбычных услoвиях.
Атмoсфернoе давление в разных тoчках местнoсти мoжет значительнo oтличаться oт давления на метеoстанции, в зависимoсти oт услoвий рельефа (при пoдъёме на 10 м давление пoнижается примернo на 1 мм рт.ст.).